Showing default

LYNK TOWER 4, 55034

Orbit data source: Space-Track

LYNK TOWER 4, 55034 is a payload satellite owned by Lynk (US) in SSO that was launched on Tue, 03 Jan 2023 UTC via an FALCON 9 launch vehicle from the Air Force Eastern Test Range (AFETR). Payload-class satellites include a variety of spacecraft equipped with specific instruments for various scientific and technological missions. These include communications satellites like Starlink; space stations such as the ISS; scientific satellites like the Hubble; Earth observation satellites from companies like Planet Labs, Umbra, and HawkEye 360; GPS; miniature CubeSats for education and research; and military/defense satellites.

Loading next visibility...
Identifier
55034, 2023-001AB
Orbit
SSO
Country
Flag of USUS
Related business
Manufacturer
Lynk
Mission
Operational Commercial Communications
Bus & Motor
LYNK SHANNON, Unknown motor
Mass
~80 kg wet, ~80 kg dry
Launch date (UTC)
2023-01-03 (3 years ago)
Launch vehicle
FALCON 9
Launch site
Air Force Eastern Test Range (AFETR)
Object type
Payload
Rocket body
Debris
Shape & HBR
Box, 0.5 m
Radar Cross Section
0.650 m², Medium (>0.1 m² and < 1m²)

Expand to show TLE details & history
Last TLE update: 23 hours ago

TLE from 23 hours ago
0 LYNK TOWER 4
1 55034U 23001AB  25309.13036959  .00008193  00000-0  29199-3 0  9992
2 55034  97.3553   5.3746 0008844 186.7880 173.3242 15.29139623157532
Epoch: 2025-11-05T03:07Z
TLE epoch observation values (Epoch: 2025-11-05T03:07:43.932Z)
Latitude
-0.00002°
Longitude
-86.1659°
Altitude
487.511 km
Speed
7.618 km/s
True Right ascension
00h 21m 29s
True Declination
0° 00' 00"
Sunlit
Object was in full shadow at epoch
Visualization orbit readout
Latitude
Unknown
Longitude
Unknown
Altitude
Unknown
Speed
Unknown
Apparent Right ascension
Unknown
Apparent Declination
Unknown
Sunlit
N/A
Visualization observer readout
Local Sidereal Time
21:48:31
Azimuth
Unknown
Elevation
Unknown
Doppler factor
Unknown
Orbital elements
Apogee altitude
481.396 km
Perigee altitude
469.273 km
Semi-major axis
6,853.471 km
Eccentricity
0.00088
Inclination
97.3553°
RAAN
5.3746°
Arg. of periapsis
186.788°
True anomaly
173.33597°
Mean anomaly
173.3242°
Eccentric anomaly
173.33009°
Mean motion
3.8254 °/min
Orbital period
94.11 mins
BSTAR
0.00029199
Loading maneuver chart data...
Computing Atmospheric mass density...
Loading historical data...
Loading historical data...
Loading historical data...
Loading historical data...
Loading historical data...
Loading historical data...
Loading historical data...

Documentation

Showing up to 5 results
|